FW1482 Weather Reports


time (UTC)temp
C
wind
direction
speed
KPH
gust
KPH
rain 1hr
cm
rain 24hr
cm
rain mn
cm
humidity
%
barometer
mb
20260504050019 7 313 0.0 0.0 0.00 0.00 0.00 73 1007.8
20260504044519 8 313 0.0 0.0 0.00 0.00 0.00 71 1008.0
20260504043031 8 313 0.0 0.0 0.00 0.00 0.00 70 1008.2
20260504041537 8 313 0.0 0.0 0.00 0.00 0.00 70 1008.2
20260504040111 9 313 0.0 0.0 0.00 0.00 0.00 69 1008.3
20260504034601 9 313 0.0 0.0 0.00 0.00 0.00 68 1008.4
20260504033007 10 313 0.0 0.0 0.00 0.00 0.00 64 1008.5
20260504031516 10 313 0.0 0.0 0.00 0.00 0.00 63 1008.6
20260504030051 11 313 0.0 0.0 0.00 0.00 0.00 60 1008.6
20260504024532 12 313 0.0 0.0 0.00 0.00 0.00 54 1008.6
20260504023007 14 313 0.0 0.0 0.00 0.00 0.00 49 1008.6
20260504021545 15 313 0.0 3.2 0.00 0.00 0.00 45 1008.4
20260504020021 16 313 1.6 6.4 0.00 0.00 0.00 42 1008.3
20260504014551 17 313 3.2 6.4 0.00 0.00 0.00 39 1008.4
20260504013025 18 311 3.2 9.7 0.00 0.00 0.00 37 1008.3
20260504011503 19 289 4.8 12.9 0.00 0.00 0.00 34 1007.9
20260504010035 20 293 6.4 16.1 0.00 0.00 0.00 33 1007.7
20260504004507 20 268 8.0 17.7 0.00 0.00 0.00 31 1007.7
20260504003013 21 279 6.4 17.7 0.00 0.00 0.00 32 1007.7
20260504001519 21 281 9.7 19.3 0.00 0.00 0.00 29 1007.6
20260504000031 22 279 8.0 25.7 0.00 0.00 0.00 29 1007.5
20260503234559 22 305 14.5 22.5 0.00 0.00 0.00 27 1007.5
20260503233055 22 308 12.9 29.0 0.00 0.00 0.00 26 1007.5
20260503231515 22 256 17.7 30.6 0.00 0.00 0.00 24 1007.5
20260503230052 22 288 17.7 29.0 0.00 0.00 0.00 25 1007.6
20260503224524 23 306 14.5 35.4 0.00 0.00 0.00 27 1007.5
20260503223003 23 306 14.5 30.6 0.00 0.00 0.00 27 1007.3
20260503221535 23 323 17.7 29.0 0.00 0.00 0.00 28 1007.2
20260503220005 23 323 20.9 33.8 0.00 0.00 0.00 25 1007.3
20260503214532 23 297 17.7 29.0 0.00 0.00 0.00 26 1007.3
20260503213009 23 320 16.1 32.2 0.00 0.00 0.00 29 1007.3
20260503211538 23 336 22.5 32.2 0.00 0.00 0.00 28 1007.3
20260503210100 23 335 20.9 32.2 0.00 0.00 0.00 31 1007.3
20260503204513 23 281 19.3 30.6 0.00 0.00 0.00 30 1007.5
20260503203020 23 278 16.1 32.2 0.00 0.00 0.00 30 1007.5
20260503201531 23 292 17.7 32.2 0.00 0.00 0.00 31 1007.6
20260503200037 22 336 20.9 37.0 0.00 0.00 0.00 31 1007.6
20260503194557 22 316 16.1 32.2 0.00 0.00 0.00 33 1007.7
20260503193006 22 310 17.7 37.0 0.00 0.00 0.00 33 1007.9
20260503191547 22 300 19.3 37.0 0.00 0.00 0.00 32 1007.9
20260503190018 21 254 16.1 29.0 0.00 0.00 0.00 37 1008.0
20260503184548 21 294 17.7 37.0 0.00 0.00 0.00 38 1008.1
20260503183018 21 247 14.5 30.6 0.00 0.00 0.00 40 1008.2
20260503181539 20 302 12.9 24.1 0.00 0.00 0.00 41 1008.4
20260503180059 20 232 11.3 29.0 0.00 0.00 0.00 42 1008.5
20260503174520 20 246 17.7 33.8 0.00 0.00 0.00 42 1008.7
20260503173041 20 267 24.1 37.0 0.00 0.00 0.00 41 1008.9
20260503171600 19 230 22.5 38.6 0.00 0.00 0.00 42 1009.0
20260503140109 12 212 24.1 35.4 0.00 0.00 0.00 55 1011.2
20260503081505 11 203 8.0 24.1 0.00 0.00 0.00 58 1015.7
20260503071610 10 206 17.7 25.7 0.00 0.00 0.00 55 1015.7